weather.gov     
National Weather Service

Regional Weather Roundup
NWS Homepage
This page is being discontinued on March 12, 2014.
The same data is available at this site. Please update your bookmarks.
Thank you, and we apologize for the inconvenience.
Please send an email to SR-SRH.Webmaster@noaa.gov with any concerns.


Current Version
Previous Version:    01  02  03  04  05  06  07  08  09  10  11  12  13  14  15  16  17  18  19  20  21  22  23  24  25  26  27  28  29  30  
   31  32  33  34  35  36  37  38  39  40  41  42  43  44  45  46  47  48  49  50  51  52  53  
[Printable]
901
ASUS43 KFSD 012310
RWRFSD

WEATHER ROUNDUP FOR SE SOUTH DAKOTA/SW MINNESOTA/NW IOWA
NATIONAL WEATHER SERVICE SIOUX FALLS SD
600 PM CDT MON SEP 01 2014

NOTE: "FAIR" INDICATES FEW OR NO CLOUDS BELOW 12,000 FEET WITH NO
SIGNIFICANT WEATHER AND OR OBSTRUCTIONS TO VISIBILITY.


SDZ038>040-050-052>070-020000-
SOUTHEAST SOUTH DAKOTA

CITY           SKY/WX    TMP DP  RH WIND       PRES   REMARKS
CHAMBERLAIN    RAIN      65  53  64 N6        29.85F
HURON          CLOUDY    65  52  62 N15G23    29.85R
MADISON        FAIR      73  52  46 W8        29.84R
MITCHELL       MOSUNNY   76  58  53 W3        29.84R
SIOUX FALLS    MOSUNNY   77  55  46 W5        29.83S
YANKTON        SUNNY     77  54  44 NW6       29.84R
$$

MNZ071-072-080-081-089-090-097-098-020000-
SOUTHWEST MINNESOTA

CITY           SKY/WX    TMP DP  RH WIND       PRES   REMARKS
FAIRMONT       MOSUNNY   72  55  56 SW3       29.82S
JACKSON        SUNNY     73  55  53 CALM      29.83S
LUVERNE        SUNNY     77  52  41 W7        29.84S
MARSHALL       SUNNY     77  54  44 W10       29.79S
MONTEVIDEO     SUNNY     81  59  47 W6        29.78S
PIPESTONE      MOSUNNY   73  52  46 W7        29.84R
REDWOOD FALLS  SUNNY     77  55  46 W8        29.78S
TRACY          SUNNY     76  56  49 W3        29.82R
WINDOM         SUNNY     75  57  53 NW3       29.82S
WORTHINGTON    SUNNY     73  55  53 W8        29.85R
$$

IAZ001>003-012>014-020>022-031-032-NEZ013-014-SDZ071-020000-
NORTHWEST IOWA

CITY           SKY/WX    TMP DP  RH WIND       PRES   REMARKS
CHEROKEE       MOSUNNY   76  61  59 W7        29.85R
DENISON        CLOUDY    73  64  73 W5        29.86R
ESTHERVILLE    MOSUNNY   71  58  63 CALM      29.84R
LE MARS        LGT RAIN  72  63  73 NW3G14    29.85S
ORANGE CITY    SUNNY     77  59  53 W6        29.85S
SHELDON        SUNNY     75  61  60 W6        29.83S
SIOUX CITY     MOSUNNY   80  60  50 SW3       29.85R
SPENCER        SUNNY     77  60  55 W12       29.84R
STORM LAKE     MOSUNNY   73  72  94 W6        29.86R
$$

ABBREVIATIONS USED IN REMARKS
   TC - TEMPERATURE IN CELSIUS
  WCI - WIND CHILL INDEX
   HX - HEAT INDEX
  VSB - VISIBILITY





U.S. Dept. of Commerce
NOAA National Weather Service
1325 East West Highway
Silver Spring, MD 20910
E-mail: w-nws.webmaster@noaa.gov
Page last modified: May 16, 2007
NATIONAL WEATHER SERVICE: for Safety, for Work, for Fun - FOR LIFE